Location: Knowlton
(51.2333°N, 1.2667°E)
Time: 04:48:08
(UTC+00:00)

Cosmos 1850 Rocket - Pass Details

Date: 18 April 2021
Orbit: 753 x 786 km, 74.0° (Epoch: 06 May)

Event Time Altitude Azimuth Distance (km) Brightness Sun altitude
Exits shadow 22:54:08 87° 212° (SSW) 770 3.8 -26.3°
Maximum altitude 22:54:13 90° 297° (WNW) 769 3.9 -26.3°
Drops below altitude 10° 22:59:29 10° 25° (NNE) 2,317 7.1 -26.5°
Sets 23:01:53 0° 25° (NNE) 3,253 8.0 -26.6°
